Location: Val-d'Or
(48.1170°N, 77.7670°W)
Time: 06:09:13
(UTC-04:00)

ISS - Pass Details

Date: 18 May 2018
Orbit: 402 x 407 km, 51.6° (Epoch: 24 May)

Event Time Altitude Azimuth Distance (km) Brightness Sun altitude
Exits shadow 03:31:27 - 289° (WNW) 2,230 -0.2 -15.1°
Reaches altitude 10° 03:33:21 10° 294° (WNW) 1,458 -1.1 -14.9°
Maximum altitude 03:36:33 51° 12° (NNE) 512 -3.0 -14.6°
Drops below altitude 10° 03:39:45 10° 90° (E) 1,456 -0.5 -14.2°
Sets 03:41:51 0° 96° (E) 2,314 0.5 -14.0°
